TimeCDT,TemperatureF,Dew PointF,Humidity,Sea Level PressureIn,VisibilityMPH,Wind Direction,Wind SpeedMPH,Gust SpeedMPH,PrecipitationIn,Events,Conditions,WindDirDegrees,DateUTC
12:15 AM,71.6,68.0,88,30.04,7.0,SSW,3.5,-,N/A,,Clear,200,2013-06-24 05:15:00
12:35 AM,71.2,68.0,89,30.04,7.0,South,6.9,-,N/A,,Clear,190,2013-06-24 05:35:00
12:55 AM,71.2,68.0,89,30.04,7.0,South,5.8,-,N/A,,Clear,190,2013-06-24 05:55:00
1:15 AM,70.7,67.5,89,30.03,7.0,SSW,3.5,-,N/A,,Clear,210,2013-06-24 06:15:00
1:35 AM,69.8,67.1,91,30.03,5.0,South,5.8,-,N/A,,Scattered Clouds,180,2013-06-24 06:35:00
1:55 AM,70.2,68.0,93,30.04,7.0,SW,5.8,-,N/A,,Clear,220,2013-06-24 06:55:00
2:15 AM,70.2,68.0,93,30.03,7.0,SSW,5.8,-,N/A,,Clear,200,2013-06-24 07:15:00
2:35 AM,69.8,67.5,92,30.02,7.0,South,5.8,-,N/A,,Clear,190,2013-06-24 07:35:00
2:55 AM,69.4,67.1,92,30.02,7.0,South,3.5,-,N/A,,Clear,170,2013-06-24 07:55:00
3:15 AM,68.5,66.2,92,30.01,5.0,SE,3.5,-,N/A,,Clear,140,2013-06-24 08:15:00
3:35 AM,68.2,65.8,92,30.02,4.0,WSW,3.5,-,N/A,,Clear,240,2013-06-24 08:35:00
3:55 AM,67.6,65.3,92,30.02,4.0,SSE,4.6,-,N/A,,Clear,160,2013-06-24 08:55:00
4:15 AM,68.0,65.7,92,30.03,5.0,South,4.6,-,N/A,,Clear,190,2013-06-24 09:15:00
4:35 AM,68.0,65.8,93,30.03,5.0,SW,4.6,-,N/A,,Clear,220,2013-06-24 09:35:00
4:55 AM,67.8,65.8,93,30.03,7.0,SW,4.6,-,N/A,,Clear,230,2013-06-24 09:55:00
5:15 AM,67.6,65.7,93,30.04,5.0,SW,4.6,-,N/A,,Clear,220,2013-06-24 10:15:00
5:35 AM,68.0,66.0,93,30.04,5.0,SW,5.8,-,N/A,,Clear,220,2013-06-24 10:35:00
5:55 AM,68.0,65.8,93,30.06,5.0,West,3.5,-,N/A,,Mist,260,2013-06-24 10:55:00
6:15 AM,68.9,66.6,92,30.07,5.0,West,3.5,-,N/A,,Mist,270,2013-06-24 11:15:00
6:35 AM,69.3,66.4,91,30.07,5.0,South,3.5,-,N/A,,Mist,180,2013-06-24 11:35:00
6:55 AM,69.1,66.4,91,30.08,5.0,SW,3.5,-,N/A,,Clear,220,2013-06-24 11:55:00
7:15 AM,69.4,66.6,91,30.08,5.0,Calm,Calm,-,N/A,,Scattered Clouds,0,2013-06-24 12:15:00
7:35 AM,69.8,66.7,90,30.08,5.0,South,4.6,-,N/A,,Scattered Clouds,180,2013-06-24 12:35:00
7:55 AM,70.7,67.1,88,30.08,5.0,South,4.6,-,N/A,,Clear,190,2013-06-24 12:55:00
8:15 AM,71.6,66.7,85,30.09,5.0,SW,3.5,-,N/A,,Haze,230,2013-06-24 13:15:00
8:35 AM,72.1,67.1,84,30.10,7.0,Calm,Calm,-,N/A,,Scattered Clouds,0,2013-06-24 13:35:00
8:55 AM,73.2,67.3,82,30.11,7.0,WNW,5.8,-,N/A,,Scattered Clouds,290,2013-06-24 13:55:00
9:15 AM,74.7,67.8,79,30.11,5.0,Calm,Calm,-,N/A,,Haze,0,2013-06-24 14:15:00
9:35 AM,77.9,68.0,71,30.10,7.0,South,5.8,-,N/A,,Clear,190,2013-06-24 14:35:00
9:55 AM,77.9,67.6,71,30.10,7.0,South,5.8,-,N/A,Rain,Rain,190,2013-06-24 14:55:00
10:15 AM,79.7,68.0,67,30.09,7.0,SSW,8.1,-,N/A,Rain,Rain,200,2013-06-24 15:15:00
10:35 AM,80.1,66.6,63,30.08,10.0,South,8.1,-,N/A,,Clear,190,2013-06-24 15:35:00
10:55 AM,80.6,67.8,65,30.08,10.0,South,8.1,-,N/A,,Clear,170,2013-06-24 15:55:00
11:15 AM,80.1,68.2,67,30.08,10.0,South,8.1,-,N/A,,Clear,180,2013-06-24 16:15:00
11:35 AM,80.4,69.4,69,30.08,10.0,South,8.1,-,N/A,,Clear,190,2013-06-24 16:35:00
11:55 AM,84.4,70.2,62,30.07,10.0,South,6.9,-,N/A,,Clear,180,2013-06-24 16:55:00
12:15 PM,85.6,70.0,59,30.05,7.0,South,10.4,-,N/A,,Clear,190,2013-06-24 17:15:00
12:35 PM,86.2,69.8,58,30.05,5.0,SSW,10.4,-,N/A,,Haze,200,2013-06-24 17:35:00
12:55 PM,86.9,70.2,57,30.03,5.0,South,10.4,16.1,N/A,,Haze,180,2013-06-24 17:55:00
1:15 PM,87.3,70.5,57,30.02,5.0,SSW,9.2,-,N/A,,Haze,200,2013-06-24 18:15:00
1:35 PM,87.3,71.1,58,30.02,5.0,South,8.1,-,N/A,,Haze,180,2013-06-24 18:35:00
1:55 PM,88.3,71.6,57,30.01,5.0,South,13.8,17.3,N/A,,Haze,190,2013-06-24 18:55:00
2:15 PM,88.3,72.5,59,30.01,7.0,SSW,11.5,19.6,N/A,,Clear,200,2013-06-24 19:15:00
2:35 PM,88.7,73.0,60,30.00,7.0,SSW,12.7,-,N/A,Rain,Rain,210,2013-06-24 19:35:00
2:55 PM,89.2,73.0,59,30.00,7.0,South,16.1,19.6,N/A,Rain,Rain,170,2013-06-24 19:55:00
3:15 PM,89.1,73.0,59,30.00,7.0,South,10.4,17.3,N/A,Rain,Rain,180,2013-06-24 20:15:00
3:35 PM,89.4,73.8,60,29.98,7.0,South,13.8,18.4,N/A,Rain,Rain,180,2013-06-24 20:35:00
3:55 PM,88.7,73.2,60,29.98,7.0,South,12.7,19.6,N/A,Rain,Rain,170,2013-06-24 20:55:00
4:15 PM,89.1,73.0,59,29.97,7.0,South,15.0,20.7,N/A,Rain,Rain,180,2013-06-24 21:15:00
4:35 PM,88.9,73.0,59,29.98,7.0,SSW,13.8,-,N/A,Rain,Rain,210,2013-06-24 21:35:00
4:55 PM,89.6,72.7,57,29.99,7.0,SSW,13.8,20.7,N/A,Rain,Rain,210,2013-06-24 21:55:00
5:15 PM,89.1,73.2,59,30.00,7.0,SSW,13.8,18.4,N/A,Rain,Rain,210,2013-06-24 22:15:00
5:35 PM,88.0,72.9,61,30.00,7.0,SW,10.4,-,N/A,Rain,Rain,220,2013-06-24 22:35:00
5:55 PM,88.9,73.6,60,29.99,5.0,SSW,10.4,-,N/A,Rain,Rain,200,2013-06-24 22:55:00
6:15 PM,88.7,73.0,60,29.99,7.0,SSW,11.5,17.3,N/A,Rain,Rain,210,2013-06-24 23:15:00
6:35 PM,87.1,72.7,62,29.99,7.0,SSW,12.7,-,N/A,Rain,Rain,210,2013-06-24 23:35:00
6:55 PM,86.0,72.9,65,29.99,5.0,SSW,10.4,-,N/A,Rain,Rain,210,2013-06-24 23:55:00
7:15 PM,84.2,73.2,69,30.00,7.0,SSW,5.8,-,N/A,Rain,Rain,210,2013-06-25 00:15:00
7:35 PM,79.5,62.8,56,30.04,10.0,NW,21.9,32.2,N/A,Rain,Light Rain,320,2013-06-25 00:35:00
7:55 PM,69.1,64.0,84,29.99,10.0,NNW,11.5,17.3,0.01,Rain,Light Rain,340,2013-06-25 00:55:00
8:15 PM,67.6,63.7,87,29.98,10.0,SSW,4.6,-,0.03,Rain,Light Rain,200,2013-06-25 01:15:00
8:35 PM,68.2,65.1,90,29.95,10.0,SSW,4.6,-,0.03,Rain,Light Rain,210,2013-06-25 01:35:00
8:55 PM,68.7,65.5,89,29.94,10.0,South,9.2,-,0.03,Rain,Rain,180,2013-06-25 01:55:00
9:15 PM,69.3,65.5,88,29.93,10.0,South,6.9,-,N/A,Rain,Rain,180,2013-06-25 02:15:00
9:35 PM,69.6,65.7,87,29.95,10.0,South,5.8,-,N/A,Rain,Rain,170,2013-06-25 02:35:00
9:55 PM,69.8,66.2,88,29.96,7.0,SSE,3.5,-,N/A,Rain,Heavy Rain,150,2013-06-25 02:55:00
10:15 PM,70.0,66.2,88,29.96,7.0,Calm,Calm,-,N/A,Rain,Rain,0,2013-06-25 03:15:00
10:35 PM,70.3,67.1,89,29.97,7.0,Calm,Calm,-,N/A,Rain,Heavy Rain,0,2013-06-25 03:35:00
10:55 PM,71.4,67.8,88,29.97,5.0,South,3.5,-,N/A,Rain,Heavy Rain,180,2013-06-25 03:55:00
11:15 PM,74.7,72.7,94,29.96,5.0,South,6.9,-,N/A,Rain,Heavy Rain,190,2013-06-25 04:15:00
11:35 PM,75.4,72.7,91,29.97,5.0,SSW,6.9,-,N/A,Rain,Heavy Rain,200,2013-06-25 04:35:00
11:55 PM,75.2,71.6,89,29.96,7.0,South,9.2,-,N/A,Rain,Rain,180,2013-06-25 04:55:00